This is the latest recevied weather packets stored in our database for station/object GW1491. If no packets are shown the sender has not sent any weather packets the latest 10 day(s).
| Time | Temp. | Humidity | Pressure | Rain* | Wind** | Luminosity | Snow |
|---|---|---|---|---|---|---|---|
| 1778011780 | 22.22° C | 60% | 1009.8 hPa | 0 mm | - | - | - |
| 1778008172 | 22.22° C | 61% | 1010.1 hPa | 0 mm | - | - | - |
| 1778007816 | 22.22° C | 62% | 1010.4 hPa | 0 mm | - | - | - |
| 1778003485 | 22.22° C | 60% | 1010.4 hPa | 0 mm | - | - | - |
| 1778003125 | 22.22° C | 62% | 1010.4 hPa | 0 mm | - | - | - |
| 1778000979 | 22.22° C | 60% | 1010.1 hPa | 0 mm | - | - | - |
| 1778000609 | 22.22° C | 60% | 1010.1 hPa | 0 mm | - | - | - |
| 1777999512 | 22.22° C | 61% | 1010.4 hPa | 0 mm | - | - | - |
| 1777998439 | 21.11° C | 62% | 1010.4 hPa | 0 mm | - | - | - |
| 1777998108 | 21.67° C | 64% | 1010.8 hPa | 0 mm | - | - | - |
| 1777997735 | 21.67° C | 63% | 1010.4 hPa | 0 mm | - | - | - |
| 1777993411 | 20° C | 66% | 1010.8 hPa | 0 mm | - | - | - |
| 1777992708 | 20° C | 68% | 1010.4 hPa | 0 mm | - | - | - |
| 1777991952 | 20° C | 66% | 1010.4 hPa | 0 mm | - | - | - |
| 1777990542 | 20° C | 67% | 1010.4 hPa | 0 mm | - | - | - |
| 1777988373 | 18.89° C | 67% | 1010.1 hPa | 0 mm | - | - | - |
| 1777987652 | 19.44° C | 68% | 1010.4 hPa | 0 mm | - | - | - |
| 1777981166 | 18.33° C | 70% | 1009.8 hPa | 0 mm | - | - | - |
| 1777980096 | 17.78° C | 71% | 1009.4 hPa | 0 mm | - | - | - |
| 1777972872 | 17.78° C | 72% | 1009.1 hPa | 0 mm | - | - | - |
| 1777972173 | 17.78° C | 72% | 1009.1 hPa | 0 mm | - | - | - |
| 1777971810 | 17.78° C | 72% | 1009.4 hPa | 0 mm | - | - | - |
| 1777970370 | 17.78° C | 72% | 1009.1 hPa | 0 mm | - | - | - |
| 1777967849 | 17.22° C | 73% | 1008.8 hPa | 0 mm | - | - | - |
| 1777967471 | 17.22° C | 74% | 1008.4 hPa | 0 mm | - | - | - |
* Rain since midnight (hover to see other rain measurements)
** Current wind speed in m/s (hover to see current wind gust speed)